Hourly Data Report for May 13, 2021

WIARTON A
ONTARIO
Current Station Operator: NAVCAN

44°44'39.000" N
81°06'31.000" W
221.90 m
6119499
71633
YVV

Download Data

Hourly Data (May 2021)
Hourly Data Report for May 13, 2021
TIME
LST
Temp Definition
°C
Dew Point Definition
°C
Rel Hum Definition
%
Precip. Amount Definition
mm

Wind Dir Definition
10's deg

Wind Spd Definition
km/h
Visibility Definition
km
Stn Press Definition
kPa
Hmdx Definition


Wind Chill Definition


Weather Definition


00:00 6.9 1.2 67   25 8 24.1 100.01     LegendNANA
01:00 5.6 0.7 71   22 8 24.1 100.01     Clear
02:00 5.4 1.2 74   23 10 24.1 99.98     LegendNANA
03:00 6.0 0.1 65   25 7 24.1 99.98     LegendNANA
04:00 5.8 0.2 67   27 8 24.1 99.98     Clear
05:00 4.4 0.6 76   23 8 24.1 100.00     LegendNANA
06:00 5.4 1.5 76   23 5 24.1 100.05     LegendNANA
07:00 8.4 1.8 63   28 7 24.1 100.10     Clear
08:00 10.2 2.1 57   24 7 24.1 100.11     LegendNANA
09:00 11.9 2.5 52   22 5 24.1 100.10     LegendNANA
10:00 13.8 3.5 49   26 9 24.1 100.09     Clear
11:00 14.3 2.4 44   27 12 24.1 100.09     LegendNANA
12:00 14.3 3.3 47   26 14 24.1 100.06     LegendNANA
13:00 13.7 3.6 50   26 16 24.1 100.02     Clear
14:00 13.4 3.1 50   27 12 24.1 100.00     LegendNANA
15:00 14.4 1.8 42   27 13 24.1 99.96     LegendNANA
16:00 14.7 0.6 38   26 10 24.1 99.91     Clear
17:00 13.6 -0.9 37   26 12 24.1 99.89     LegendNANA
18:00 13.5 -0.6 38   26 8 24.1 99.86     LegendNANA
19:00 11.6 0.6 46   22 12 24.1 99.84     Clear
20:00 9.3 0.7 55   27 9 24.1 99.83     LegendNANA
21:00 7.8 0.3 59   21 7 24.1 99.86     LegendNANA
22:00 5.5 1.2 74   16 8 24.1 99.86     Clear
23:00 3.4 0.3 80   18 5 24.1 99.83     LegendNANA

Notes on Data Quality.

Legend

  • E = Estimated
  • M = Missing
  • NA = Not Available*
  • [empty] = Indicates an unobserved value
Date modified: